| time (UTC) | temp C | wind direction | speed KPH | gust KPH | rain 1hr cm | rain 24hr cm | rain mn cm | humidity % | barometer mb |
| 20260508173005 | 12 | 13 | 4.8 | 9.7 | 0.00 | 2.39 | 0.00 | 78 | 1001.2 |
| 20260508171500 | 12 | 360 | 4.8 | 14.5 | 0.00 | 2.39 | 0.00 | 82 | 1001.3 |
| 20260508170100 | 12 | 355 | 6.4 | 12.9 | 0.00 | 2.39 | 0.00 | 85 | 1001.4 |
| 20260508164558 | 12 | 3 | 4.8 | 16.1 | 0.00 | 2.49 | 0.00 | 90 | 1001.4 |
| 20260508163052 | 10 | 238 | 1.6 | 8.0 | 0.00 | 2.49 | 0.00 | 93 | 1001.5 |
| 20260508161601 | 10 | 251 | 3.2 | 8.0 | 0.00 | 2.49 | 0.00 | 93 | 1001.5 |
| 20260508160045 | 8 | 222 | 3.2 | 6.4 | 0.00 | 2.49 | 0.00 | 94 | 1001.7 |
| 20260508154545 | 8 | 231 | 1.6 | 4.8 | 0.00 | 2.49 | 0.00 | 94 | 1001.9 |
| 20260508153047 | 8 | 227 | 3.2 | 6.4 | 0.00 | 2.49 | 0.00 | 94 | 1002.0 |
| 20260508151545 | 8 | 222 | 4.8 | 9.7 | 0.00 | 2.49 | 0.00 | 94 | 1002.1 |
| 20260508150043 | 8 | 259 | 1.6 | 8.0 | 0.00 | 2.49 | 0.00 | 95 | 1002.0 |
| 20260508144545 | 7 | 272 | 1.6 | 8.0 | 0.00 | 2.49 | 0.00 | 95 | 1002.0 |
| 20260508143047 | 7 | 348 | 3.2 | 9.7 | 0.00 | 2.49 | 0.00 | 95 | 1001.9 |
| 20260508141541 | 7 | 7 | 1.6 | 6.4 | 0.00 | 2.49 | 0.00 | 95 | 1002.1 |
| 20260508140041 | 7 | 5 | 1.6 | 4.8 | 0.00 | 2.49 | 0.00 | 95 | 1002.2 |
| 20260508134540 | 7 | 348 | 6.4 | 11.3 | 0.00 | 2.49 | 0.00 | 95 | 1002.3 |
| 20260508111503 | 6 | 111 | 1.6 | 16.1 | 0.00 | 2.51 | 0.00 | 95 | 1002.5 |
| 20260508110001 | 6 | 49 | 3.2 | 16.1 | 0.00 | 2.62 | 0.00 | 95 | 1002.2 |
| 20260508104559 | 6 | 24 | 0.0 | 9.7 | 0.00 | 2.62 | 0.00 | 95 | 1003.1 |
| 20260508103057 | 6 | 46 | 1.6 | 6.4 | 0.00 | 2.62 | 0.00 | 95 | 1002.5 |
| 20260508101554 | 6 | 49 | 1.6 | 6.4 | 0.00 | 2.62 | 0.00 | 95 | 1002.6 |
| 20260508100051 | 7 | 33 | 0.0 | 6.4 | 0.00 | 2.62 | 0.00 | 95 | 1002.5 |
| 20260508094603 | 7 | 58 | 0.0 | 3.2 | 0.00 | 2.64 | 0.00 | 95 | 1002.5 |
| 20260508093051 | 7 | 71 | 0.0 | 4.8 | 0.00 | 2.64 | 0.00 | 95 | 1002.2 |
| 20260508091549 | 7 | 70 | 0.0 | 4.8 | 0.00 | 2.64 | 0.00 | 95 | 1002.1 |
| 20260508090050 | 7 | 72 | 0.0 | 4.8 | 0.00 | 2.64 | 0.00 | 95 | 1002.0 |
| 20260508084547 | 7 | 34 | 0.0 | 0.0 | 0.00 | 2.69 | 0.00 | 95 | 1002.1 |
| 20260508083047 | 7 | 29 | 0.0 | 0.0 | 0.00 | 2.69 | 0.00 | 95 | 1002.2 |
| 20260508081602 | 7 | 26 | 0.0 | 3.2 | 0.00 | 2.69 | 0.00 | 95 | 1001.9 |
| 20260508080044 | 7 | 26 | 0.0 | 1.6 | 0.00 | 2.69 | 0.00 | 95 | 1001.5 |
| 20260508074543 | 7 | 20 | 0.0 | 4.8 | 0.00 | 2.77 | 0.00 | 95 | 1001.4 |
| 20260508073042 | 7 | 37 | 0.0 | 0.0 | 0.00 | 2.77 | 0.00 | 95 | 1001.7 |
| 20260508071541 | 7 | 37 | 0.0 | 0.0 | 0.00 | 2.77 | 0.00 | 95 | 1001.6 |
| 20260508070042 | 7 | 39 | 0.0 | 0.0 | 0.00 | 2.77 | 0.00 | 95 | 1001.6 |
| 20260508064539 | 7 | 22 | 0.0 | 4.8 | 0.00 | 2.77 | 0.00 | 95 | 1001.7 |
| 20260508063037 | 7 | 11 | 0.0 | 3.2 | 0.00 | 2.77 | 0.00 | 95 | 1001.5 |
| 20260508061538 | 7 | 14 | 0.0 | 0.0 | 0.00 | 2.77 | 0.00 | 95 | 1001.7 |
| 20260508060035 | 7 | 15 | 0.0 | 0.0 | 0.00 | 2.77 | 0.00 | 95 | 1002.0 |
| 20260508054541 | 7 | 19 | 0.0 | 3.2 | 0.00 | 2.77 | 0.00 | 95 | 1001.7 |
| 20260508053032 | 8 | 18 | 0.0 | 0.0 | 0.00 | 2.77 | 0.00 | 95 | 1001.7 |
| 20260508051531 | 8 | 18 | 0.0 | 1.6 | 0.00 | 2.77 | 0.00 | 95 | 1001.7 |
| 20260508050028 | 8 | 18 | 0.0 | 0.0 | 0.00 | 2.77 | 0.00 | 95 | 1001.2 |
| 20260508044526 | 8 | 18 | 0.0 | 1.6 | 0.00 | 2.77 | 0.00 | 95 | 1001.4 |
| 20260508043024 | 8 | 17 | 0.0 | 4.8 | 0.00 | 2.77 | 0.00 | 95 | 1001.6 |
| 20260508041521 | 8 | 22 | 0.0 | 1.6 | 0.00 | 2.77 | 0.00 | 95 | 1002.0 |
| 20260508040019 | 9 | 22 | 0.0 | 0.0 | 0.00 | 2.77 | 0.00 | 95 | 1002.0 |
| 20260508034518 | 9 | 22 | 0.0 | 4.8 | 0.00 | 2.77 | 0.00 | 95 | 1001.9 |
| 20260508033015 | 9 | 286 | 0.0 | 0.0 | 0.00 | 2.77 | 0.00 | 95 | 1002.2 |
| 20260508031512 | 9 | 332 | 3.2 | 8.0 | 0.00 | 2.77 | 0.00 | 95 | 1002.4 |
| 20260508030011 | 9 | 226 | 0.0 | 11.3 | 0.00 | 2.77 | 2.77 | 95 | 1002.5 |
| 20260508024511 | 9 | 240 | 1.6 | 9.7 | 0.00 | 2.77 | 2.77 | 95 | 1002.5 |
| 20260508023013 | 9 | 228 | 0.0 | 6.4 | 0.00 | 2.77 | 2.77 | 95 | 1002.5 |
| 20260508021509 | 10 | 232 | 0.0 | 4.8 | 0.00 | 2.77 | 2.77 | 95 | 1002.3 |
| 20260508020009 | 10 | 236 | 0.0 | 0.0 | 0.00 | 2.77 | 2.77 | 95 | 1002.3 |
| 20260508014508 | 10 | 236 | 0.0 | 4.8 | 0.00 | 2.77 | 2.77 | 95 | 1002.4 |
| 20260508013007 | 10 | 178 | 0.0 | 4.8 | 0.00 | 2.77 | 2.77 | 95 | 1002.3 |
| 20260508011510 | 9 | 172 | 0.0 | 1.6 | 0.00 | 2.77 | 2.77 | 95 | 1002.3 |
| 20260508010009 | 9 | 170 | 0.0 | 3.2 | 0.00 | 2.77 | 2.77 | 95 | 1002.3 |
| 20260508004508 | 9 | 168 | 0.0 | 3.2 | 0.00 | 2.77 | 2.77 | 95 | 1002.4 |
| 20260508003006 | 8 | 159 | 1.6 | 4.8 | 0.00 | 2.77 | 2.77 | 95 | 1002.7 |
| 20260508001505 | 8 | 244 | 1.6 | 9.7 | 0.00 | 2.77 | 2.77 | 95 | 1002.6 |
| 20260508000008 | 8 | 189 | 3.2 | 12.9 | 0.00 | 2.77 | 2.77 | 94 | 1002.7 |
| 20260507234515 | 8 | 165 | 6.4 | 19.3 | 0.00 | 2.77 | 2.77 | 94 | 1002.7 |
| 20260507233004 | 8 | 168 | 0.0 | 11.3 | 0.00 | 2.77 | 2.77 | 94 | 1002.5 |
| 20260507231503 | 8 | 193 | 3.2 | 19.3 | 0.00 | 2.77 | 2.77 | 94 | 1002.6 |
| 20260507230004 | 9 | 139 | 11.3 | 19.3 | 0.00 | 2.77 | 2.77 | 94 | 1002.6 |
| 20260507224506 | 10 | 187 | 9.7 | 17.7 | 0.00 | 2.77 | 2.77 | 94 | 1002.5 |
| 20260507223002 | 10 | 215 | 8.0 | 22.5 | 0.00 | 2.77 | 2.77 | 94 | 1002.3 |
| 20260507221501 | 10 | 164 | 14.5 | 25.7 | 0.03 | 2.77 | 2.77 | 94 | 1002.3 |
| 20260507220100 | 10 | 157 | 14.5 | 24.1 | 0.03 | 2.77 | 2.77 | 94 | 1002.5 |
| 20260507214601 | 10 | 169 | 12.9 | 32.2 | 0.03 | 2.77 | 2.77 | 94 | 1002.5 |
| 20260507213107 | 10 | 141 | 14.5 | 27.4 | 0.05 | 2.77 | 2.77 | 94 | 1002.3 |
| 20260507211558 | 10 | 186 | 19.3 | 32.2 | 0.08 | 2.77 | 2.77 | 94 | 1002.3 |
| 20260507210058 | 9 | 169 | 14.5 | 27.4 | 0.18 | 2.77 | 2.77 | 94 | 1001.5 |
| 20260507204559 | 9 | 136 | 16.1 | 24.1 | 0.30 | 2.77 | 2.77 | 94 | 1002.4 |
| 20260507203100 | 9 | 157 | 14.5 | 22.5 | 0.48 | 2.74 | 2.74 | 94 | 1003.0 |
| 20260507201551 | 8 | 158 | 9.7 | 20.9 | 0.71 | 2.69 | 2.69 | 94 | 1003.6 |
| 20260507200052 | 8 | 146 | 12.9 | 22.5 | 0.91 | 2.59 | 2.59 | 94 | 1003.7 |
| 20260507194547 | 8 | 132 | 12.9 | 22.5 | 1.09 | 2.46 | 2.46 | 94 | 1003.9 |
| 20260507193050 | 8 | 161 | 12.9 | 24.1 | 1.19 | 2.26 | 2.26 | 93 | 1004.6 |
| 20260507191543 | 8 | 197 | 12.9 | 30.6 | 1.24 | 1.93 | 1.93 | 93 | 1005.4 |
| 20260507190039 | 10 | 219 | 12.9 | 33.8 | 1.17 | 1.65 | 1.65 | 93 | 1005.3 |
| 20260507184539 | 11 | 228 | 12.9 | 27.4 | 0.94 | 1.37 | 1.37 | 93 | 1005.0 |
| 20260507183042 | 11 | 160 | 14.5 | 29.0 | 0.69 | 1.07 | 1.07 | 93 | 1005.0 |
| 20260507181536 | 11 | 180 | 11.3 | 32.2 | 0.30 | 0.69 | 0.69 | 93 | 1005.8 |
| 20260507180041 | 11 | 153 | 17.7 | 29.0 | 0.10 | 0.48 | 0.48 | 93 | 1004.9 |
| 20260507174536 | 11 | 136 | 17.7 | 37.0 | 0.05 | 0.43 | 0.43 | 93 | 1004.6 |